Weather History for Shemya, AK

Change the Weather History Date:

Tuesday, March 19, 2013

  Actual Average Record
Temperature  
Mean Temperature 36 °F -  
Max Temperature 37 °F 34 °F 44 °F (2004)
Min Temperature 35 °F 29 °F 21 °F (1976)
Degree Days  
Heating Degree Days 29    
Moisture  
Dew Point 37 °F    
Average Humidity 99    
Maximum Humidity 100    
Minimum Humidity 93    
Precipitation  
Precipitation 0.00 in - - ()
Sea Level Pressure  
Sea Level Pressure 29.98 in    
Wind  
Wind Speed 24 mph (East)    
Max Wind Speed 26 mph    
Max Gust Speed 31 mph    
Visibility 6 miles    
Events Rain , Snow    
Averages and records for this station are not official NWS values.
T = Trace of Precipitation, MM = Missing Value Source: NWS Daily Summary

Daily Weather History Graph

Daily Weather History Graph

Search for Another Location

Airport:

Trip Planner

Search our weather history database for the weather conditions in past years. The results will help you decide how hot, cold, wet, or windy it might be!

Date:

Astronomy

Mar. 18, 2013 Rise Set
Actual Time 9:29 AM HADT 9:34 PM HADT
Civil Twilight 8:55 AM HADT 10:08 PM HADT
Nautical Twilight 8:15 AM HADT 10:49 PM HADT
Astronomical Twilight 7:33 AM HADT 11:31 PM HADT
Moon 1:48 PM HADT (3/19) 5:18 AM HADT (3/19)
Length of Visible Light 13h 13m
Length of Day
12h 04m
First Quarter, 51% of the Moon is Illuminated
Mar 19
First Quarter
Mar 27
Full
Apr 2
Last Quarter
Apr 10
New
Apr 18
First Quarter

Hourly Weather History & Observations

Time (HADT) Temp. Windchill Dew Point Humidity Pressure Visibility Wind Dir Wind Speed Gust Speed Precip Events Conditions
12:56 AM 35.1 °F 22.7 °F 34.0 °F 96% 30.04 in 10.0 mi NE 25.3 mph 29.9 mph N/A   Overcast
1:56 AM 36.0 °F 24.7 °F 34.0 °F 93% 30.04 in 10.0 mi NE 21.9 mph 29.9 mph N/A   Overcast
2:56 AM 36.0 °F 23.7 °F 35.1 °F 97% 30.04 in 10.0 mi NE 26.5 mph 31.1 mph N/A   Overcast
3:22 AM 35.6 °F 23.7 °F 35.6 °F 100% 30.04 in 6.2 mi NE 24.2 mph 31.1 mph N/A Rain Light Rain
3:56 AM 36.0 °F 24.4 °F 35.1 °F 97% 30.05 in 6.0 mi NE 23.0 mph - N/A Rain Light Rain
4:19 AM 35.6 °F 24.0 °F 35.6 °F 100% 30.04 in 6.0 mi NE 23.0 mph - N/A   Overcast
4:56 AM 36.0 °F 24.7 °F 36.0 °F 100% 30.04 in 6.0 mi NE 21.9 mph - N/A   Overcast
5:56 AM 36.0 °F 25.0 °F 36.0 °F 100% 30.04 in 5.0 mi ENE 20.7 mph - N/A Rain Light Rain
6:56 AM 36.0 °F 25.0 °F 36.0 °F 100% 30.01 in 5.0 mi ENE 20.7 mph - N/A   Overcast
7:56 AM 37.0 °F 25.9 °F 37.0 °F 100% 30.02 in 7.0 mi ENE 23.0 mph - N/A Rain Light Rain
8:56 AM 37.0 °F 25.9 °F 37.0 °F 100% 30.03 in 10.0 mi East 23.0 mph - N/A   Overcast
9:56 AM 37.0 °F 26.2 °F 37.0 °F 100% 30.04 in 5.0 mi East 21.9 mph - N/A   Overcast
10:31 AM 37.4 °F 26.1 °F 37.4 °F 100% 30.03 in - East 24.2 mph - N/A   Overcast
10:56 AM 37.0 °F 25.6 °F 37.0 °F 100% 30.03 in 6.0 mi East 24.2 mph - N/A Rain Light Rain
11:34 AM 37.4 °F 25.6 °F 37.4 °F 100% 30.02 in 6.2 mi East 26.5 mph 31.1 mph N/A   Overcast
11:56 AM 37.9 °F 26.6 °F 37.9 °F 100% 30.02 in 8.0 mi East 25.3 mph - N/A Rain Light Rain
12:56 PM 37.9 °F 26.8 °F 37.9 °F 100% 30.01 in 8.0 mi East 24.2 mph - N/A Rain Light Rain
1:56 PM 37.9 °F 27.1 °F 37.9 °F 100% 29.99 in 6.0 mi East 23.0 mph 28.8 mph N/A   Overcast
2:45 PM 37.4 °F 26.6 °F 37.4 °F 100% 29.98 in 6.0 mi East 21.9 mph - N/A   Overcast
2:56 PM 37.9 °F 26.8 °F 37.9 °F 100% 29.99 in 6.0 mi East 24.2 mph 29.9 mph N/A   Overcast
3:56 PM 37.9 °F 26.8 °F 37.9 °F 100% 29.96 in 6.0 mi East 24.2 mph - N/A   Overcast
4:26 PM 37.4 °F 26.4 °F 37.4 °F 100% 29.95 in 2.5 mi East 23.0 mph - N/A   Overcast
4:34 PM 37.4 °F 25.6 °F 37.4 °F 100% 29.95 in - East 26.5 mph - N/A   Overcast
4:56 PM 37.9 °F 26.8 °F 37.0 °F 97% 29.95 in 10.0 mi East 24.2 mph - N/A   Overcast
5:56 PM 37.9 °F 27.1 °F 37.0 °F 97% 29.94 in 10.0 mi East 23.0 mph - N/A   Overcast
6:56 PM 37.9 °F 27.3 °F 37.0 °F 97% 29.93 in 10.0 mi East 21.9 mph - N/A   Overcast
7:56 PM 37.9 °F 27.1 °F 37.0 °F 97% 29.92 in 2.5 mi ESE 23.0 mph - N/A Snow Light Snow
8:05 PM 37.4 °F 26.6 °F 37.4 °F 100% 29.92 in 2.5 mi ESE 21.9 mph - N/A Rain Light Rain
8:35 PM 37.4 °F 26.6 °F 37.4 °F 100% 29.91 in - ESE 21.9 mph - N/A Rain Light Rain
8:56 PM 37.0 °F 26.2 °F 37.0 °F 100% 29.91 in 3.0 mi ESE 21.9 mph - N/A   Overcast
9:56 PM 37.0 °F 25.4 °F 37.0 °F 100% 29.90 in 4.0 mi ESE 25.3 mph 31.1 mph N/A Snow Light Snow
10:56 PM 37.9 °F 26.8 °F 37.0 °F 97% 29.90 in 6.0 mi ESE 24.2 mph - N/A   Overcast
11:26 PM 37.4 °F 26.1 °F 37.4 °F 100% 29.89 in 2.5 mi ESE 24.2 mph - N/A Snow Light Snow
11:37 PM 37.4 °F 26.1 °F 37.4 °F 100% 29.89 in 3.0 mi ESE 24.2 mph - N/A Snow Light Snow
11:56 PM 37.9 °F 26.6 °F 37.0 °F 97% 29.89 in 4.0 mi ESE 25.3 mph - N/A   Overcast